Вернуться в каталог

GRUS-3E

АктивенНаукаSSO
NORAD 69898·PAYLOAD·🇺🇸 United States

Запущен Jul 7, 2026 с Vandenberg Space Force Base

Loading…

Ближайшие Пролёты (ближайшие 24 часа)

TLE

СвежийSource: Space-Track

Эпоха: Sep 13, 2026, 16:54 UTC

1 69898U 26156AF  26256.70453905  .00000564  00000-0  61804-4 0  9992
2 69898  97.7467 155.9979 0004000 283.9631  76.1142 14.91551267 10196

Отслеживайте GRUS-3E в реальном времени с AllMySat

Download on the App Store